Simultaneous Nadir Overpasses (SNOs) Predictions

Prediction of SNOs between AQUA and METOP-B Satellite Orbit:

Table of predicted SNOs for the next 14.0 days since TLE Epoch: 2/22/2014
Index Date (AQUA) Time (AQUA) Lat,Lon (AQUA) SZA (AQUA ) Date (METOP-B) Time (METOP-B) Lat,Lon (METOP-B) SZA (METOP-B ) Distance(km) Time Diff (sec)
1 02/22/2014 19:14:06 73.71,-113.99 83.82 02/22/2014 19:13:43 73.70,-114.08 83.82 3.19 23
2 02/22/2014 20:03:33 -73.80, 53.47 96.10 02/22/2014 20:04:22 -73.80, 53.49 96.11 0.77 49
3 02/25/2014 13:58:44 -73.35, 145.59 97.60 02/25/2014 13:57:34 -73.31, 144.10 97.57 47.63 70
4 02/25/2014 14:48:19 73.74, -47.60 82.81 02/25/2014 14:48:06 73.73, -47.60 82.80 0.83 13
5 02/25/2014 15:37:46 -73.82, 119.87 97.12 02/25/2014 15:38:46 -73.79, 119.87 97.16 3.58 60
6 02/28/2014 09:33:03 -73.69,-148.68 98.30 02/28/2014 09:31:51 -73.69,-148.63 98.29 1.44 72
7 02/28/2014 10:22:32 73.77, 18.79 81.78 02/28/2014 10:22:30 73.76, 18.86 81.76 2.60 2
8 02/28/2014 11:11:58 -73.80,-173.62 98.21 02/28/2014 11:13:10 -73.82,-173.66 98.20 2.83 72
9 03/03/2014 05:07:15 -73.72, -82.28 99.34 03/03/2014 05:06:15 -73.71, -82.19 99.35 3.38 60
10 03/03/2014 05:56:43 73.75, 85.29 80.68 03/03/2014 05:56:54 73.77, 85.29 80.70 1.96 11
11 03/03/2014 06:46:18 -74.24,-108.17 98.81 03/03/2014 06:47:26 -74.23,-106.25 98.90 58.16 68
12 03/06/2014 00:41:24 -73.70, -15.78 100.45 03/06/2014 00:40:38 -73.72, -15.76 100.43 1.49 46
13 03/06/2014 01:30:53 73.79, 151.67 79.63 03/06/2014 01:31:17 73.77, 151.70 79.61 2.31 24




NCC Satellite Simultaneous Nadir Overpasses (SNOs) Prediction Service
